When you browse on this site, cookies collect data to enhance your experience and personalize the content and advertising you see.
Visit our Privacy Policy to learn more. By continuing to use the site, you agree to this use of cookies and data.
  • In Portugal
  • List of Countries
  • For 7 days
  • Water Temperature
  • Weather Map
  • Weather Widgets
  • user-avatar
    Login

    Hourly Weather Ayalizimahi

    Today, 23 September, Monday

    Time Temperature Precipitation Wind Pressure Humidity
    00:00 +7°C° 0 mm 1 mps 671 mmHg 71%
    01:00 +7°C° 0 mm 1 mps 671 mmHg 69%
    02:00 +6°C° 0 mm 2 mps 671 mmHg 66%
    03:00 +6°C° 0 mm 2 mps 671 mmHg 63%
    04:00 +6°C° 0 mm 2 mps 671 mmHg 62%
    05:00 +6°C° 0 mm 2 mps 671 mmHg 62%
    06:00 +7°C° 0 mm 1 mps 670 mmHg 61%
    07:00 +8°C° 0 mm 2 mps 671 mmHg 55%
    08:00 +10°C° 0 mm 2 mps 671 mmHg 49%
    09:00 +13°C° 0 mm 2 mps 672 mmHg 39%
    10:00 +14°C° 0 mm 2 mps 672 mmHg 39%
    11:00 +14°C° 0 mm 3 mps 672 mmHg 39%
    12:00 +14°C° 0 mm 3 mps 672 mmHg 39%
    13:00 +14°C° 0 mm 3 mps 671 mmHg 40%
    14:00 +14°C° 0 mm 3 mps 671 mmHg 42%
    15:00 +14°C° 0 mm 3 mps 671 mmHg 45%
    16:00 +13°C° 0 mm 2 mps 671 mmHg 52%
    17:00 +10°C° 0 mm 2 mps 670 mmHg 59%
    18:00 +9°C° 0 mm 1 mps 670 mmHg 66%
    19:00 +9°C° 0 mm 1 mps 670 mmHg 66%
    20:00 +9°C° 0 mm 1 mps 670 mmHg 66%
    21:00 +8°C° 0 mm 2 mps 671 mmHg 66%
    22:00 +8°C° 0 mm 2 mps 670 mmHg 66%
    23:00 +9°C° 0 mm 1 mps 670 mmHg 65%

    Tomorrow, 24 September, Tuesday

    Time Temperature Precipitation Wind Pressure Humidity
    00:00 +9°C° 0 mm 1 mps 670 mmHg 65%
    01:00 +8°C° 0 mm 1 mps 670 mmHg 65%
    02:00 +8°C° 0 mm 1 mps 670 mmHg 64%
    03:00 +8°C° 0 mm 1 mps 670 mmHg 64%
    04:00 +8°C° 0 mm 1 mps 670 mmHg 63%
    05:00 +8°C° 0 mm 1 mps 670 mmHg 63%
    06:00 +8°C° 0 mm 1 mps 670 mmHg 62%
    07:00 +9°C° 0 mm 2 mps 670 mmHg 56%
    08:00 +13°C° 0 mm 2 mps 671 mmHg 50%
    09:00 +15°C° 0 mm 2 mps 672 mmHg 44%
    10:00 +16°C° 0 mm 2 mps 672 mmHg 44%
    11:00 +16°C° 0 mm 3 mps 672 mmHg 45%
    12:00 +17°C° 0 mm 3 mps 671 mmHg 45%
    13:00 +17°C° 0 mm 3 mps 671 mmHg 50%
    14:00 +17°C° 0 mm 3 mps 671 mmHg 54%
    15:00 +16°C° 0 mm 3 mps 671 mmHg 58%
    16:00 +15°C° 0 mm 2 mps 670 mmHg 68%
    17:00 +13°C° 0 mm 2 mps 670 mmHg 77%
    18:00 +11°C° 0 mm 1 mps 669 mmHg 87%
    19:00 +11°C° 0 mm 1 mps 669 mmHg 87%
    20:00 +10°C° 0 mm 1 mps 669 mmHg 86%
    21:00 +10°C° 0 mm 1 mps 670 mmHg 86%
    22:00 +10°C° 0 mm 1 mps 669 mmHg 85%
    23:00 +10°C° 0 mm 1 mps 669 mmHg 83%

    Day after tomorrow, 25 September, Wednesday

    Time Temperature Precipitation Wind Pressure Humidity
    00:00 +10°C° 0 mm 1 mps 668 mmHg 82%
    01:00 +10°C° 0 mm 1 mps 668 mmHg 80%
    02:00 +10°C° 0 mm 1 mps 668 mmHg 77%
    03:00 +10°C° 0 mm 1 mps 668 mmHg 75%
    04:00 +9°C° 0 mm 0 mps 668 mmHg 75%
    05:00 +9°C° 0 mm 0 mps 668 mmHg 74%
    06:00 +9°C° 0 mm 0 mps 668 mmHg 74%
    07:00 +11°C° 0 mm 1 mps 669 mmHg 70%
    08:00 +13°C° 0 mm 1 mps 669 mmHg 65%
    09:00 +15°C° 0 mm 1 mps 670 mmHg 61%
    10:00 +15°C° 0 mm 2 mps 670 mmHg 63%
    11:00 +16°C° 0 mm 2 mps 670 mmHg 65%
    12:00 +16°C° 0 mm 3 mps 670 mmHg 66%
    13:00 +16°C° 0 mm 3 mps 670 mmHg 71%
    14:00 +15°C° 0 mm 2 mps 670 mmHg 75%
    15:00 +15°C° 0 mm 2 mps 670 mmHg 79%
    16:00 +14°C° 0 mm 2 mps 669 mmHg 82%
    17:00 +13°C° 0 mm 1 mps 669 mmHg 85%
    18:00 +13°C° 0 mm 1 mps 669 mmHg 88%
    19:00 +12°C° 0 mm 1 mps 670 mmHg 89%
    20:00 +12°C° 0 mm 1 mps 670 mmHg 91%
    21:00 +11°C° 0 mm 1 mps 670 mmHg 92%
    22:00 +11°C° 0 mm 1 mps 670 mmHg 91%
    23:00 +11°C° 0 mm 1 mps 670 mmHg 90%

    26 September, Thursday

    Time Temperature Precipitation Wind Pressure Humidity
    00:00 +11°C° 0 mm 1 mps 669 mmHg 89%
    01:00 +11°C° 0 mm 1 mps 669 mmHg 87%
    02:00 +11°C° 0 mm 1 mps 669 mmHg 85%
    03:00 +11°C° 0 mm 1 mps 669 mmHg 83%
    04:00 +11°C° 0 mm 1 mps 669 mmHg 82%
    05:00 +11°C° 0 mm 1 mps 669 mmHg 81%
    06:00 +11°C° 0 mm 1 mps 669 mmHg 80%
    07:00 +12°C° 0 mm 1 mps 669 mmHg 76%
    08:00 +13°C° 0 mm 1 mps 670 mmHg 71%
    09:00 +15°C° 0 mm 2 mps 670 mmHg 66%
    10:00 +16°C° 0 mm 2 mps 670 mmHg 62%
    11:00 +17°C° 0 mm 3 mps 670 mmHg 59%
    12:00 +18°C° 0 mm 3 mps 671 mmHg 56%
    13:00 +17°C° 0 mm 3 mps 670 mmHg 59%
    14:00 +17°C° 0 mm 3 mps 670 mmHg 63%
    15:00 +16°C° 0 mm 3 mps 670 mmHg 66%
    16:00 +15°C° 0 mm 2 mps 669 mmHg 73%
    17:00 +14°C° 0 mm 1 mps 669 mmHg 80%
    18:00 +12°C° 0 mm 1 mps 669 mmHg 87%
    19:00 +12°C° 0 mm 1 mps 669 mmHg 88%
    20:00 +11°C° 0 mm 1 mps 669 mmHg 89%
    21:00 +11°C° 0 mm 1 mps 669 mmHg 90%
    22:00 +11°C° 0 mm 1 mps 669 mmHg 89%
    23:00 +11°C° 0 mm 1 mps 669 mmHg 89%

    27 September, Friday

    Time Temperature Precipitation Wind Pressure Humidity
    00:00 +11°C° 0 mm 1 mps 669 mmHg 88%
    01:00 +11°C° 0 mm 1 mps 669 mmHg 87%
    02:00 +10°C° 0 mm 1 mps 668 mmHg 85%
    03:00 +10°C° 0 mm 1 mps 668 mmHg 84%
    04:00 +10°C° 0 mm 1 mps 668 mmHg 83%
    05:00 +10°C° 0 mm 1 mps 668 mmHg 82%
    06:00 +10°C° 0 mm 1 mps 668 mmHg 80%
    07:00 +12°C° 0 mm 1 mps 669 mmHg 73%
    08:00 +14°C° 0 mm 2 mps 669 mmHg 66%
    09:00 +16°C° 0 mm 2 mps 670 mmHg 59%
    10:00 +17°C° 0 mm 3 mps 670 mmHg 57%
    11:00 +17°C° 0 mm 3 mps 670 mmHg 55%
    12:00 +18°C° 0 mm 4 mps 670 mmHg 53%
    13:00 +18°C° 0 mm 4 mps 670 mmHg 56%
    14:00 +18°C° 0 mm 3 mps 669 mmHg 58%
    15:00 +18°C° 0 mm 3 mps 669 mmHg 61%
    16:00 +16°C° 0 mm 3 mps 669 mmHg 68%
    17:00 +15°C° 0 mm 2 mps 668 mmHg 75%
    18:00 +13°C° 0 mm 2 mps 668 mmHg 82%
    19:00 +13°C° 0 mm 1 mps 668 mmHg 81%
    20:00 +13°C° 0 mm 1 mps 668 mmHg 80%
    21:00 +13°C° 0 mm 1 mps 668 mmHg 80%
    22:00 +13°C° 0 mm 1 mps 668 mmHg 78%
    23:00 +13°C° 0 mm 1 mps 668 mmHg 77%

    28 September, Saturday

    Time Temperature Precipitation Wind Pressure Humidity
    00:00 +13°C° 0 mm 1 mps 668 mmHg 76%
    01:00 +13°C° 0 mm 1 mps 668 mmHg 77%
    02:00 +12°C° 0 mm 0 mps 668 mmHg 78%
    03:00 +11°C° 0 mm 0 mps 667 mmHg 79%
    04:00 +11°C° 0 mm 0 mps 667 mmHg 79%
    05:00 +11°C° 0 mm 0 mps 667 mmHg 80%
    06:00 +11°C° 0 mm 0 mps 667 mmHg 80%
    07:00 +13°C° 0 mm 1 mps 667 mmHg 74%
    08:00 +15°C° 0 mm 1 mps 667 mmHg 68%
    09:00 +16°C° 0 mm 2 mps 667 mmHg 61%
    10:00 +16°C° 0.1 mm 2 mps 668 mmHg 61%
    11:00 +16°C° 0.1 mm 2 mps 668 mmHg 62%
    12:00 +16°C° 0.1 mm 3 mps 668 mmHg 62%
    13:00 +14°C° 1.6 mm 3 mps 668 mmHg 70%
    14:00 +12°C° 1.6 mm 3 mps 668 mmHg 79%
    15:00 +11°C° 1.6 mm 4 mps 668 mmHg 87%
    16:00 +10°C° 1.3 mm 3 mps 668 mmHg 89%
    17:00 +10°C° 1.3 mm 2 mps 669 mmHg 91%
    18:00 +9°C° 1.3 mm 2 mps 669 mmHg 93%
    19:00 +10°C° 0.1 mm 1 mps 670 mmHg 93%
    20:00 +10°C° 0.1 mm 1 mps 670 mmHg 93%
    21:00 +10°C° 0.1 mm 1 mps 670 mmHg 93%
    22:00 +9°C° 0 mm 1 mps 670 mmHg 93%
    23:00 +9°C° 0 mm 1 mps 670 mmHg 93%
    Show more